Torna al catalogo

CZ-6A DEB

AttivoSSO
NORAD 54583·DEBRIS·🇨🇳 China

Lanciato Nov 11, 2022 da Taiyuan Satellite Launch Center

Loading…

Prossimi Passaggi (prossime 24 ore)

TLE

AggiornatoSource: Space-Track

Epoca: Sep 14, 2026, 08:54 UTC

1 54583U 22151MK  26257.37146000  .00001246  00000-0  72449-3 0  9991
2 54583  98.8667 243.8449 0087101 132.1572 228.7039 14.08581582196080

Traccia CZ-6A DEB in tempo reale con AllMySat

Download on the App Store